Вернуться в каталог

METEOSAT 2

АктивенПогодаGEO
NORAD 12544·PAYLOAD·🇪🇺 EU

Запущен Jun 19, 1981 с Guiana Space Centre

Loading…

TLE

СвежийSource: Space-Track

Эпоха: Sep 14, 2026, 14:18 UTC

1 12544U 81057A   26257.59607443 -.00000106  00000-0  00000-0 0  9995
2 12544  10.1257 318.8240 0027673  16.2212 339.0049  0.98723599124725

Отслеживайте METEOSAT 2 в реальном времени с AllMySat

Download on the App Store